Regional Weather Roundup
Issued by NWS

Home | Current Version | Previous Version | Text Only | Print | Product List | Glossary On
Versions: 1 2 3 4 5 6 7 8 9 10 11 12 13 14 15 16 17 18 19 20 21 22 23 24 25 26 27 28 29 30 31 32 33 34 35 36 37 38 39 40 41 42 43 44 45 46 47 48 49 50
121
ASUS43 KDTX 290510
RWRMI
MICHIGAN HOURLY REGIONAL WEATHER ROUNDUP
NATIONAL WEATHER SERVICE DETROIT/PONTIAC MI
100 AM EDT THU SEP 29 2016

NOTE: "FAIR" INDICATES FEW OR NO CLOUDS BELOW 12,000 FEET WITH NO
SIGNIFICANT WEATHER AND/OR OBSTRUCTION TO VISIBILITY.

MIZ047>049-052>055-059>063-066>070-074>076-081>083-290600-
SOUTHEAST LOWER MICHIGAN

CITY           SKY/WX    TMP DP  RH WIND       PRES   REMARKS
ADRIAN         LGT RAIN  58  57  97 E13       30.02R
ALMA           CLOUDY    59  56  92 N9        30.10S
ANN ARBOR      LGT RAIN  58  57  97 NE7       30.02S
BAD AXE        PTCLDY    61  52  72 E8        30.12S
CARO           MOCLDY    62  54  75 NE6       30.09R
DETROIT CITY   RAIN      59  59 100 NE9       30.03F FOG
DETROIT        LGT RAIN  59  58  96 NE7       30.02F FOG
FLINT          CLOUDY    60  55  83 E9        30.06S
GROSSE ILE     LGT RAIN  59  57  95 CALM      30.00F
HILLSDALE      LGT RAIN  55  54  94 NE10      30.00S
HOWELL         RAIN      57  55  94 NE8       30.05S

CITY           SKY/WX    TMP DP  RH WIND       PRES   REMARKS
JACKSON        LGT RAIN  57  56  96 NE6       30.04R
LAMBERTVILLE   DRIZZLE   59  57  92 CALM      30.00S
LANSING        CLOUDY    58  53  84 NE7       30.06R
LAPEER         CLOUDY    63  54  72 E8        30.06F
MASON          LGT RAIN  57  55  91 NE7       30.05R
MONROE         RAIN      58  58  97 N7        30.01R
MT. CLEMENS    CLOUDY    61  57  88 NE6       30.02F
PONTIAC        LGT RAIN  58  55  90 NE6       30.05S
PORT HURON     MOCLDY    61  57  88 NE12      30.06S
TRI CITIES     CLOUDY    62  54  74 NE12      30.11R
MIDLAND        CLOUDY    60  55  85 N6        30.11R
TROY           RAIN      60  57  92 NE5       30.06F
SAGINAW HB     CLOUDY    61  54  77 NE9       30.09R
$$
MIZ043>046-050>051-056>058-064>065-071>073-077>080-290600-
SOUTHWEST LOWER MICHIGAN

CITY           SKY/WX    TMP DP  RH WIND       PRES   REMARKS
BATTLE CREEK   LGT RAIN  57  55  93 NE8       30.04S
BENTON HARBOR  LGT RAIN  57  52  83 NE6       30.05R
BIG RAPIDS     CLEAR     58  54  84 NE7       30.14R
COLDWATER      RAIN      56  56  99 NE12G18   30.00S
FREMONT        FAIR      57  51  80 NE12      30.11S
HOLLAND        CLOUDY    58  52  80 N8        30.08R
GRAND RAPIDS   CLOUDY    56  52  86 N13       30.08R
IONIA          FAIR      56  53  86 N9G20     30.07R
KALAMAZOO      LGT RAIN  57  53  86 N9        30.04S
LUDINGTON      PTCLDY    57  52  83 NE9       30.16S
MARSHALL       LGT RAIN  56  56  98 CALM      30.03R
MOUNT PLEASANT MOCLDY    59  55  87 N9        30.11S
MUSKEGON       PTCLDY    57  51  80 NE9       30.11S
SOUTH HAVEN    CLOUDY    58  55  89 NE9       30.05S
$$
MIZ016>042-290600-
NORTHERN LOWER MICHIGAN

CITY           SKY/WX    TMP DP  RH WIND       PRES   REMARKS
ALPENA         CLEAR     62  53  72 E13G21    30.23R
BEAVER ISLAND  CLEAR     58  53  81 NE7       30.27R
BELLAIRE       CLEAR     51  49  95 CALM      30.23R
CADILLAC       PTCLDY    54  51  88 N6        30.19R
CHARLEVOIX     CLEAR     60  52  74 NE6       30.27R
FRANKFORT      CLEAR     61  53  74 CALM      30.22R
GAYLORD        CLEAR     55  50  83 NE7       30.23R
GRAYLING       CLEAR     54  53  94 NE8       30.21S
HARBOR SPRINGS CLEAR     59  51  74 NE10      30.24S HAZE
HOUGHTON LAKE  CLEAR     54  52  93 NE12      30.19S
MANISTEE       CLEAR     59  51  75 NE12      30.18S
OSCODA         PTCLDY    63  53  69 NE16G22   30.17S
PELLSTON       CLEAR     55  51  86 NE6       30.26R
ROGERS CITY    CLEAR     60  55  84 E6        30.25S
TRAVERSE CITY  CLEAR     59  52  77 NE6       30.21R
$$
MIZ007>008-015-290600-
EASTERN UPPER MICHIGAN

CITY           SKY/WX    TMP DP  RH WIND       PRES   REMARKS
KINROSS        CLEAR     54  49  83 NE8       30.29S
MACKINAC ISLAN CLEAR     57  50  79 NE5       30.27R
NEWBERRY       CLEAR     53  52  97 N5        30.30R
S. S. MARIE    CLEAR     56  49  77 E3        30.29R
MUNISING         N/A     58  56  93 NW6       30.32S
$$
MIZ004>006-011>014-085-290600-
CENTRAL UPPER MICHIGAN

CITY           SKY/WX    TMP DP  RH WIND       PRES   REMARKS
MANISTIQUE     CLEAR     53  50  92 N8        30.29R
ESCANABA       CLEAR     54  52  93 N8        30.30S
MENOMINEE      CLEAR     54  51  90 N9        30.29S
SAWYER-GWINN   PTCLDY    52  50  95 N7        30.35R
$$
MIZ001>003-009>011-084-290600-
WESTERN UPPER MICHIGAN

CITY           SKY/WX    TMP DP  RH WIND       PRES   REMARKS
IRON MOUNTAIN  CLEAR     49  45  86 NW3       30.33R
HOUGHTON       PTCLDY    44  42  93 CALM      30.37F
COPPER HARBOR    N/A     58  53  84 E9        30.37S
IRONWOOD       FOG       46  46 100 CALM      30.39R VSB 1/2
$$

ABBREVIATIONS USED IN REMARKS
   TC - TEMPERATURE IN CELSIUS
  WCI - WIND CHILL INDEX
   HX - HEAT INDEX
  VSB - VISIBILITY





USA.gov is the U.S. government's official web portal to all federal, state and local government web resources and services.